Hourly Data Report for October 07, 2015

All times are specified in Local Standard Time (LST). Add 1 hour to adjust for Daylight Saving Time where and when it is observed.

RESOLUTE BAY A
NUNAVUT

74°43'01.000" N
94°58'10.000" W
67.70 m
2403498
71924
YRB

Download Data

Hourly Data (October 2015)
Hourly Data Report for October 7, 2015
Temp Definition
°C
Dew Point Temp Definition
°C
Rel Hum Definition
%
Wind Dir Definition
10's deg

Wind Spd Definition
km/h
Visibility Definition
km
Stn Press Definition
kPa
Hmdx Definition


Wind Chill Definition


Weather Definition


TIME
00:00 Legend Double Dagger -6.0 -7.2 91 11 13 11.3 98.62   -11 Snow
01:00 Legend Double Dagger -6.3 -8.0 88 7 13 16.1 98.55   -12 LegendNANA
02:00 Legend Double Dagger -6.0 -7.5 89 8 44 24.1 98.45   -16 Blowing Snow
03:00 Legend Double Dagger -7.4 -9.1 88 12 41 8.1 98.55   -17 Blowing Snow
04:00 Legend Double Dagger -9.2 -12.7 76 13 34 16.1 98.61   -19 Blowing Snow
05:00 Legend Double Dagger -9.1 -12.4 77 11 32 24.1 98.64   -19 Blowing Snow
06:00 Legend Double Dagger -9.0 -11.5 82 9 45 24.1 98.60   -20 Blowing Snow
07:00 Legend Double Dagger -9.1 -12.8 75 9 40 9.7 98.60   -20 Blowing Snow
08:00 Legend Double Dagger -9.9 -13.4 76 8 45 12.9 98.53   -21 Blowing Snow
09:00 Legend Double Dagger -8.7 -11.1 83 11 42 4.8 98.57   -19 Blowing Snow
10:00 Legend Double Dagger -9.7 -12.9 78 9 37 16.1 98.60   -20 LegendNANA
11:00 Legend Double Dagger -10.2 -13.7 76 8 31 16.1 98.60   -20 LegendNANA
12:00 Legend Double Dagger -8.9 -12.4 76 9 39 16.1 98.55   -19 Mainly Clear
13:00 Legend Double Dagger -8.5 -11.7 78 9 47 19.3 98.50   -19 LegendNANA
14:00 Legend Double Dagger -6.9 -8.7 87 9 50 4.8 98.47   -18 Blowing Snow
15:00 Legend Double Dagger -6.8 -8.8 86 10 43 16.1 98.51   -17 Mainly Clear
16:00 Legend Double Dagger -7.2 -9.2 86 11 27 16.1 98.58   -15 LegendNANA
17:00 Legend Double Dagger -6.4 -9.1 81 15 33 16.1 98.66   -15 LegendNANA
18:00 Legend Double Dagger -6.2 -8.5 84 14 34 19.3 98.76   -15 Cloudy
19:00 Legend Double Dagger -6.4 -8.8 83 16 39 19.3 98.87   -16 LegendNANA
20:00 Legend Double Dagger -6.8 -9.9 79 15 43 24.1 98.94   -17 LegendNANA
21:00 Legend Double Dagger -7.4 -10.1 81 14 29 24.1 99.01   -16 Mainly Clear
22:00 Legend Double Dagger -8.3 -10.7 83 12 29 24.1 99.11   -17 LegendNANA
23:00 Legend Double Dagger -8.5 -10.4 86 11 29 24.1 99.18   -17 LegendNANA

Notes on Data Quality.

Legend

  • E = Estimated
  • M = Missing
  • NA = Not Available
  • ‡ = Partner data that is not subject to review by the National Climate Archives
Date modified: